* Astronomy

Members Login
Username 
 
Password 
    Remember Me  
Post Info TOPIC: Asteroid 2015 XT378


L

Posts: 131433
Date:
Asteroid 2015 XT378
Permalink  
 


Orbital elements:
2015 XT378                                               Earth MOID = 0.0006 AU
Epoch 2016 Jan. 13.0 TT = JDT 2457400.5                 MPC
M 126.38862              (2000.0)            P               Q
n   1.08656889     Peri.   64.87010     +0.78818377     +0.60781419
a   0.9370538      Node   257.55142     -0.59426570     +0.71082550
e   0.2329337      Incl.    5.67630     -0.16004568     +0.35396189
P   0.91           H   27.9           G   0.15           U   7

MPEC 2015 - Y07



__________________
Page 1 of 1  sorted by
 
Quick Reply

Please log in to post quick replies.



Create your own FREE Forum
Report Abuse
Powered by ActiveBoard